Location: Ch�ze
(42.9000°N, 0.0333°W)
Time: 00:17:22
(UTC+00:00)

USA 229 - Pass Details

Date: 24 January 2021
Orbit: 964 x 1248 km, 63.4° (Epoch: 23 February)

Event Time Altitude Azimuth Distance (km) Brightness Sun altitude
Rises 18:31:56 0° 325° (NW) 3,953 7.0 -16.3°
Reaches altitude 10° 18:34:38 10° 330° (NNW) 3,032 6.3 -16.8°
Maximum altitude 18:41:49 57° 48° (NE) 1,387 4.0 -18.1°
Enters shadow 18:47:29 19° 121° (ESE) 2,575 5.3 -19.1°
